Location: Newark
(42.1399°N, 3.1179°E)
Time: 11:04:49
(UTC+00:00)

ISS - Visible Passes

Search period start: 17 July 2019 00:00
Search period end: 27 July 2019 00:00
Orbit: 409 x 418 km, 51.6° (Epoch: 17 July)

Date Brightness Start Highest point End Pass type
(mag) Time Alt. Az. Time Alt. Az. Time Alt. Az.
17 Jul -0.6 00:19:32 10° NW 00:21:40 16° N 00:23:48 10° NE visible
17 Jul -1.4 01:56:21 10° NW 01:59:11 25° NNE 02:02:01 10° E visible
17 Jul -3.8 03:32:48 10° WNW 03:36:05 60° SW 03:39:20 10° SE visible
17 Jul -3.1 20:15:04 10° SSW 20:18:05 32° SE 20:21:07 10° ENE visible
17 Jul -2.1 21:51:38 10° W 21:54:45 36° NNW 21:57:52 10° NE visible
17 Jul -0.7 23:29:54 10° NW 23:32:08 16° N 23:34:21 10° NE visible
18 Jul -1.0 01:07:08 10° NW 01:09:43 20° NNE 01:12:18 10° ENE visible
18 Jul -3.7 02:43:30 10° NW 02:46:49 77° NNE 02:50:07 10° ESE visible
18 Jul -3.0 21:02:05 10° WSW 21:05:23 55° NNW 21:08:40 10° NE visible
18 Jul -0.8 22:40:11 10° WNW 22:42:36 18° NNW 22:45:01 10° NE visible
19 Jul -0.8 00:17:52 10° NW 00:20:13 17° N 00:22:32 10° NE visible
19 Jul -2.8 01:54:16 10° NW 01:57:30 47° NNE 02:00:42 10° ESE visible
19 Jul -2.6 03:31:21 10° W 03:34:00 22° SW 03:36:37 10° S visible
19 Jul -3.8 20:12:43 10° SW 20:16:03 89° SSE 20:19:25 10° NE visible
19 Jul -1.1 21:50:25 10° WNW 21:53:06 22° NNW 21:55:46 10° NE visible
19 Jul -0.7 23:28:29 10° NW 23:30:39 16° N 23:32:50 10° NE visible
20 Jul -2.0 01:05:04 10° NW 01:08:06 32° NNE 01:09:07 26° ENE visible
20 Jul -2.8 02:45:53 29° S 02:45:53 29° S 02:47:55 10° SSE visible
20 Jul -1.6 21:00:40 10° W 21:03:37 28° NNW 21:06:34 10° NE visible
20 Jul -0.7 22:38:57 10° NW 22:41:06 16° N 22:43:15 10° NE visible
21 Jul -1.3 00:15:51 10° NW 00:18:02 23° N 00:18:02 23° N visible
21 Jul -2.2 20:11:00 10° W 20:14:11 40° NNW 20:17:22 10° NE visible
21 Jul -0.7 21:49:15 10° NW 21:51:31 17° N 21:53:48 10° NE visible
21 Jul -1.1 23:26:36 10° NW 23:29:08 19° NNE 23:29:25 19° NNE visible
22 Jul -0.9 20:59:28 10° WNW 21:01:57 19° NNW 21:04:27 10° NE visible
22 Jul -0.9 22:37:16 10° NW 22:39:33 17° N 22:41:11 13° NE visible
23 Jul -0.7 00:13:41 10° NW 00:13:59 12° NW 00:13:59 12° NW visible
23 Jul -1.2 20:09:39 10° WNW 20:12:25 23° NNW 20:15:10 10° NE visible
23 Jul -0.8 21:47:48 10° NW 21:49:58 16° N 21:52:07 10° NE visible
23 Jul -1.1 23:24:27 10° NW 23:25:55 20° NNW 23:25:55 20° NNW visible
24 Jul -0.8 20:58:10 10° NW 21:00:21 16° N 21:02:31 10° NE visible
24 Jul -1.5 22:35:11 10° NW 22:37:54 22° NNE 22:37:57 22° NNE visible
25 Jul -0.9 20:08:24 10° NW 20:10:44 17° N 20:13:04 10° NE visible
25 Jul -1.2 21:45:52 10° NW 21:48:19 19° NNE 21:50:01 14° NE visible
25 Jul -0.8 23:22:14 10° NW 23:22:49 14° NW 23:22:49 14° NW visible
26 Jul -1.0 20:56:27 10° NW 20:58:42 17° N 21:00:58 10° NE visible
26 Jul -1.7 22:32:56 10° NW 22:34:56 28° NNW 22:34:56 28° NNW visible
